• In Hungary
  • List of Countries
  • For 7 days
  • Water Temperature
  • Satellite Maps
  • Weather Map
  • News
  • Weather Widgets
  • user-avatar
    Login

    Hourly Weather Mbini

    Today, 17 August, Friday

    Time Temperature Precipitation Wind Pressure Humidity
    00:00 +27°C° 0 mm 3 mps 761 mmHg 93%
    01:00 +26°C° 0 mm 4 mps 761 mmHg 93%
    02:00 +26°C° 0.1 mm 4 mps 761 mmHg 93%
    03:00 +26°C° 0.1 mm 4 mps 760 mmHg 93%
    04:00 +26°C° 0.1 mm 4 mps 760 mmHg 93%
    05:00 +26°C° 0.1 mm 4 mps 760 mmHg 93%
    06:00 +26°C° 0.1 mm 4 mps 760 mmHg 93%
    07:00 +26°C° 0.1 mm 4 mps 760 mmHg 93%
    08:00 +27°C° 0 mm 4 mps 761 mmHg 87%
    09:00 +28°C° 0 mm 4 mps 761 mmHg 82%
    10:00 +30°C° 0 mm 4 mps 761 mmHg 76%
    11:00 +30°C° 0.1 mm 4 mps 761 mmHg 74%
    12:00 +32°C° 0.1 mm 4 mps 761 mmHg 71%
    13:00 +32°C° 0.1 mm 4 mps 760 mmHg 68%
    14:00 +32°C° 0.2 mm 4 mps 760 mmHg 70%
    15:00 +32°C° 0.2 mm 4 mps 759 mmHg 71%
    16:00 +32°C° 0.2 mm 4 mps 758 mmHg 72%
    17:00 +30°C° 0 mm 4 mps 758 mmHg 76%
    18:00 +29°C° 0 mm 4 mps 758 mmHg 80%
    19:00 +27°C° 0 mm 4 mps 759 mmHg 85%
    20:00 +27°C° 0 mm 3 mps 759 mmHg 87%
    21:00 +27°C° 0 mm 3 mps 760 mmHg 89%
    22:00 +26°C° 0 mm 3 mps 760 mmHg 91%
    23:00 +26°C° 0 mm 3 mps 760 mmHg 92%

    Tomorrow, 18 August, Saturday

    Time Temperature Precipitation Wind Pressure Humidity
    00:00 +26°C° 0 mm 3 mps 760 mmHg 92%
    01:00 +26°C° 0 mm 3 mps 760 mmHg 93%
    02:00 +26°C° 0 mm 3 mps 759 mmHg 93%
    03:00 +26°C° 0 mm 3 mps 759 mmHg 93%
    04:00 +26°C° 0 mm 4 mps 758 mmHg 93%
    05:00 +26°C° 0.1 mm 4 mps 759 mmHg 93%
    06:00 +26°C° 0.1 mm 3 mps 759 mmHg 93%
    07:00 +26°C° 0.1 mm 3 mps 759 mmHg 93%
    08:00 +27°C° 0.1 mm 3 mps 760 mmHg 86%
    09:00 +29°C° 0.1 mm 3 mps 760 mmHg 79%
    10:00 +30°C° 0.1 mm 3 mps 761 mmHg 72%
    11:00 +32°C° 0.1 mm 4 mps 760 mmHg 69%
    12:00 +33°C° 0.1 mm 4 mps 759 mmHg 65%
    13:00 +34°C° 0.1 mm 4 mps 759 mmHg 62%
    14:00 +34°C° 0 mm 4 mps 758 mmHg 63%
    15:00 +33°C° 0 mm 4 mps 758 mmHg 63%
    16:00 +33°C° 0 mm 4 mps 757 mmHg 63%
    17:00 +30°C° 0 mm 4 mps 757 mmHg 70%
    18:00 +29°C° 0 mm 4 mps 758 mmHg 77%
    19:00 +27°C° 0 mm 3 mps 758 mmHg 84%
    20:00 +27°C° 0 mm 3 mps 759 mmHg 86%
    21:00 +27°C° 0 mm 3 mps 759 mmHg 88%
    22:00 +26°C° 0 mm 3 mps 760 mmHg 90%
    23:00 +26°C° 0 mm 3 mps 760 mmHg 91%

    Day after tomorrow, 19 August, Sunday

    Time Temperature Precipitation Wind Pressure Humidity
    00:00 +26°C° 0 mm 3 mps 760 mmHg 91%
    01:00 +26°C° 0 mm 3 mps 760 mmHg 91%
    02:00 +26°C° 0 mm 3 mps 759 mmHg 92%
    03:00 +26°C° 0 mm 3 mps 759 mmHg 92%
    04:00 +26°C° 0 mm 3 mps 759 mmHg 93%
    05:00 +26°C° 0 mm 3 mps 759 mmHg 93%
    06:00 +26°C° 0 mm 3 mps 759 mmHg 93%
    07:00 +26°C° 0 mm 3 mps 760 mmHg 92%
    08:00 +27°C° 0 mm 3 mps 760 mmHg 84%
    09:00 +29°C° 0 mm 3 mps 761 mmHg 76%
    10:00 +32°C° 0 mm 4 mps 761 mmHg 68%
    11:00 +32°C° 0 mm 4 mps 760 mmHg 64%
    12:00 +33°C° 0 mm 4 mps 760 mmHg 61%
    13:00 +34°C° 0 mm 4 mps 759 mmHg 57%
    14:00 +34°C° 0 mm 4 mps 759 mmHg 58%
    15:00 +33°C° 0 mm 4 mps 758 mmHg 60%
    16:00 +33°C° 0 mm 4 mps 757 mmHg 61%
    17:00 +30°C° 0 mm 4 mps 758 mmHg 67%
    18:00 +29°C° 0 mm 4 mps 758 mmHg 74%
    19:00 +27°C° 0 mm 3 mps 759 mmHg 80%
    20:00 +27°C° 0 mm 3 mps 759 mmHg 83%
    21:00 +27°C° 0 mm 3 mps 760 mmHg 85%
    22:00 +26°C° 0 mm 3 mps 761 mmHg 88%
    23:00 +26°C° 0.1 mm 3 mps 760 mmHg 89%

    20 August, Monday

    Time Temperature Precipitation Wind Pressure Humidity
    00:00 +26°C° 0.1 mm 3 mps 760 mmHg 89%
    01:00 +26°C° 0.1 mm 4 mps 760 mmHg 90%
    02:00 +26°C° 0.1 mm 4 mps 760 mmHg 90%
    03:00 +26°C° 0.1 mm 4 mps 759 mmHg 91%
    04:00 +26°C° 0.1 mm 4 mps 759 mmHg 91%
    05:00 +26°C° 0.1 mm 4 mps 759 mmHg 91%
    06:00 +26°C° 0.1 mm 4 mps 760 mmHg 92%
    07:00 +26°C° 0.1 mm 4 mps 760 mmHg 92%
    08:00 +27°C° 0.1 mm 4 mps 761 mmHg 87%
    09:00 +28°C° 0.1 mm 4 mps 761 mmHg 81%
    10:00 +29°C° 0.1 mm 4 mps 762 mmHg 75%
    11:00 +30°C° 0.2 mm 4 mps 761 mmHg 74%
    12:00 +30°C° 0.2 mm 4 mps 760 mmHg 72%
    13:00 +32°C° 0.2 mm 5 mps 760 mmHg 70%
    14:00 +32°C° 0.1 mm 5 mps 759 mmHg 71%
    15:00 +30°C° 0.1 mm 5 mps 758 mmHg 72%
    16:00 +30°C° 0.1 mm 5 mps 758 mmHg 73%
    17:00 +29°C° 0 mm 5 mps 758 mmHg 77%
    18:00 +28°C° 0 mm 4 mps 759 mmHg 81%
    19:00 +27°C° 0 mm 4 mps 759 mmHg 86%
    20:00 +27°C° 0 mm 4 mps 760 mmHg 87%
    21:00 +27°C° 0 mm 4 mps 760 mmHg 89%
    22:00 +26°C° 0 mm 4 mps 761 mmHg 90%
    23:00 +26°C° 0 mm 4 mps 760 mmHg 91%

    21 August, Tuesday

    Time Temperature Precipitation Wind Pressure Humidity
    00:00 +26°C° 0 mm 4 mps 760 mmHg 92%
    01:00 +26°C° 0 mm 4 mps 760 mmHg 92%
    02:00 +26°C° 0 mm 4 mps 760 mmHg 92%
    03:00 +26°C° 0 mm 4 mps 760 mmHg 93%
    04:00 +26°C° 0 mm 4 mps 759 mmHg 93%
    05:00 +26°C° 0 mm 4 mps 760 mmHg 93%
    06:00 +26°C° 0 mm 4 mps 760 mmHg 92%
    07:00 +26°C° 0 mm 4 mps 760 mmHg 92%
    08:00 +27°C° 0.1 mm 4 mps 761 mmHg 87%
    09:00 +28°C° 0.1 mm 4 mps 761 mmHg 81%
    10:00 +29°C° 0.1 mm 5 mps 762 mmHg 76%
    11:00 +30°C° 0.2 mm 5 mps 761 mmHg 75%
    12:00 +30°C° 0.2 mm 5 mps 760 mmHg 74%
    13:00 +30°C° 0.2 mm 5 mps 760 mmHg 73%
    14:00 +30°C° 0.1 mm 5 mps 759 mmHg 74%
    15:00 +30°C° 0.1 mm 5 mps 759 mmHg 75%
    16:00 +29°C° 0.1 mm 6 mps 758 mmHg 75%
    17:00 +28°C° 0 mm 5 mps 759 mmHg 79%
    18:00 +28°C° 0 mm 5 mps 759 mmHg 82%
    19:00 +27°C° 0 mm 5 mps 759 mmHg 86%
    20:00 +26°C° 0 mm 5 mps 760 mmHg 87%
    21:00 +26°C° 0 mm 4 mps 760 mmHg 89%
    22:00 +26°C° 0 mm 4 mps 761 mmHg 91%
    23:00 +25°C° 0 mm 4 mps 761 mmHg 91%

    22 August, Wednesday

    Time Temperature Precipitation Wind Pressure Humidity
    00:00 +25°C° 0 mm 4 mps 760 mmHg 92%
    01:00 +25°C° 0 mm 4 mps 760 mmHg 92%
    02:00 +25°C° 0 mm 4 mps 760 mmHg 92%
    03:00 +25°C° 0 mm 4 mps 760 mmHg 91%
    04:00 +25°C° 0 mm 4 mps 760 mmHg 91%
    05:00 +25°C° 0 mm 4 mps 760 mmHg 91%
    06:00 +25°C° 0 mm 4 mps 760 mmHg 91%
    07:00 +25°C° 0 mm 4 mps 760 mmHg 91%
    08:00 +26°C° 0 mm 5 mps 761 mmHg 84%
    09:00 +28°C° 0 mm 5 mps 761 mmHg 77%
    10:00 +29°C° 0 mm 5 mps 761 mmHg 69%
    11:00 +30°C° 0 mm 5 mps 761 mmHg 65%
    12:00 +32°C° 0 mm 5 mps 760 mmHg 62%
    13:00 +33°C° 0 mm 5 mps 760 mmHg 58%
    14:00 +33°C° 0 mm 6 mps 759 mmHg 59%
    15:00 +33°C° 0 mm 6 mps 759 mmHg 61%
    16:00 +33°C° 0 mm 6 mps 758 mmHg 62%
    17:00 +30°C° 0 mm 6 mps 759 mmHg 68%
    18:00 +29°C° 0 mm 5 mps 759 mmHg 74%
    19:00 +27°C° 0 mm 5 mps 759 mmHg 80%
    20:00 +27°C° 0 mm 5 mps 760 mmHg 82%
    21:00 +26°C° 0 mm 4 mps 760 mmHg 84%
    22:00 +26°C° 0 mm 4 mps 761 mmHg 86%
    23:00 +26°C° 0 mm 4 mps 760 mmHg 88%
    Show more